Dewpoint
67 66 63 62 61 61 60 59 59 58 58 58 57 56 55 55 53 53 53 53 51 49 48 48 46 46 44 45 45 43 44 45 45 46 46 47 47 48 47 47 46 43
65 65 62 62 61 60 60 60 59 58 58 58 57 56 55 54 54 53 52 50 49 48 47 47 46 44 43 43 45 45 44 44 43 43 45 45 45 46 46 46 45 44
65 65 63 62 61 61 61 60 59 59 57 57 56 56 55 52 52 52 52 50 49 48 48 47 46 44 43 43 44 44 44 44 44 45 45 45 44 45 45 44 44 44
64 63 62 61 61 60 61 59 59 58 57 56 55 55 54 52 52 52 51 50 49 48 48 46 45 43 42 44 45 44 45 43 43 44 43 44 44 45 44 44 43 41
63 63 62 61 61 60 59 58 57 56 56 55 55 54 53 53 51 51 51 49 49 48 47 46 45 44 44 44 44 44 44 42 43 43 42 43 44 43 43 42 42 42
63 61 61 60 60 59 58 56 54 55 55 55 54 53 52 53 51 49 49 48 48 47 46 46 43 43 44 44 44 44 43 42 43 42 40 41 41 42 41 42 42 41
62 61 60 60 59 58 56 55 55 55 54 54 52 52 52 51 50 49 47 47 46 46 45 44 43 44 44 44 44 43 43 41 41 40 40 40 40 40 39 39 38 37
61 60 59 58 58 57 55 53 53 54 54 52 52 51 49 48 48 49 48 47 44 43 44 43 43 42 42 43 42 43 43 42 41 39 39 40 41 38 39 40 41 38
60 59 58 57 57 56 54 53 54 54 52 52 51 49 49 48 48 48 46 45 44 44 42 42 42 42 44 43 43 42 40 42 42 41 41 40 39 37 35 38 39 40
58 58 58 57 56 54 54 53 53 53 52 52 49 48 47 48 48 46 46 45 44 42 42 42 43 43 43 41 40 40 40 40 40 41 41 40 38 36 36 38 38 39
59 57 57 56 55 54 54 53 54 53 52 50 49 47 47 47 47 45 45 44 45 41 41 41 42 41 40 40 41 42 40 41 40 39 41 40 40 39 38 38 39 39
59 58 56 55 54 54 53 53 53 53 51 49 46 46 48 47 46 45 44 43 41 41 40 40 39 39 38 38 39 41 41 41 41 41 40 38 38 38 39 40 40 39
57 57 55 54 54 54 54 52 52 53 51 48 46 47 47 46 45 44 44 42 41 41 41 41 40 39 39 39 39 40 40 41 42 41 40 40 39 38 38 39 39 39
57 56 55 54 54 53 52 52 52 52 51 48 46 47 46 44 44 43 44 42 42 41 41 42 41 39 40 40 39 40 41 41 41 42 40 41 41 39 40 39 40 40
57 55 55 54 53 52 52 52 52 52 49 46 46 46 46 44 43 44 43 41 41 43 41 42 43 42 41 41 40 39 41 41 41 40 41 41 40 40 40 39 39 40
56 55 54 53 52 51 51 52 51 50 48 46 45 45 45 43 43 45 41 42 42 42 42 44 44 44 49 44 45 45 41 42 42 42 40 40 41 41 41 40 41 39
55 54 54 52 51 51 52 51 51 50 46 45 46 46 46 49 47 46 50 50 48 45 48 49 49 47 40 38 38 39 42 43 42 42 41 41 42 41 40 41 40 40
55 54 52 52 51 50 50 49 52 50 46 45 45 43 43 46 49 48 47 44 45 44 45 45 45 43 38 38 38 38 41 46 43 42 42 42 42 40 41 41 41 41
54 53 52 52 51 50 50 50 50 47 46 47 48 48 48 46 44 44 44 44 45 45 44 44 46 39 38 38 37 37 38 41 40 43 41 41 41 40 40 40 41 40
54 52 51 51 50 50 50 48 47 46 47 45 46 48 47 47 47 46 45 44 44 43 44 44 46 40 38 38 38 37 37 38 41 42 41 40 41 40 41 41 41 40
52 51 50 49 49 49 48 47 47 47 45 45 46 45 45 44 44 43 42 44 44 44 44 43 48 39 37 37 37 37 37 38 42 43 41 42 42 41 41 41 41 41
51 50 49 48 49 48 48 47 47 46 46 46 44 42 41 39 37 38 40 41 43 43 43 43 47 37 37 37 37 37 37 40 40 43 42 42 41 40 40 42 41 38
50 49 48 48 48 48 47 46 46 46 47 46 41 40 38 36 38 38 38 42 42 42 44 45 43 39 37 37 37 37 37 38 39 42 40 39 39 39 40 40 40 37
49 48 47 47 47 47 46 46 46 44 44 42 40 39 37 36 36 37 41 41 41 42 44 45 44 40 37 37 36 36 38 37 38 38 35 36 39 41 40 40 39 40
49 48 47 47 46 46 46 45 45 44 43 43 41 39 37 36 37 38 41 42 43 44 47 45 43 40 36 36 36 36 39 39 36 29 34 37 38 39 39 38 38 33
49 49 48 47 46 46 46 45 44 44 44 43 41 38 37 37 40 42 40 41 44 44 44 44 43 41 39 36 36 36 36 38 35 32 34 36 37 36 36 37 36 30